When you browse on this site, cookies collect data to enhance your experience and personalize the content and advertising you see.
Visit our Privacy Policy to learn more. By continuing to use the site, you agree to this use of cookies and data.
  • In Germany
  • List of Countries
  • For 7 days
  • Water Temperature
  • Weather Map
  • Weather Widgets
  • user-avatar
    Login

    Hourly Weather Dangriga

    Today, 23 September, Monday

    Time Temperature Precipitation Wind Pressure Humidity
    00:00 +26°C° 0 mm 2 mps 758 mmHg 96%
    01:00 +26°C° 0.1 mm 2 mps 758 mmHg 96%
    02:00 +26°C° 0.1 mm 2 mps 758 mmHg 96%
    03:00 +26°C° 0.1 mm 2 mps 758 mmHg 96%
    04:00 +26°C° 0.1 mm 2 mps 758 mmHg 95%
    05:00 +26°C° 0.1 mm 2 mps 758 mmHg 95%
    06:00 +26°C° 0.1 mm 2 mps 758 mmHg 95%
    07:00 +28°C° 0 mm 1 mps 758 mmHg 83%
    08:00 +31°C° 0 mm 1 mps 759 mmHg 72%
    09:00 +34°C° 0 mm 1 mps 759 mmHg 60%
    10:00 +34°C° 0 mm 1 mps 759 mmHg 61%
    11:00 +35°C° 0 mm 2 mps 758 mmHg 61%
    12:00 +35°C° 0 mm 2 mps 757 mmHg 62%
    13:00 +35°C° 0.2 mm 2 mps 757 mmHg 66%
    14:00 +35°C° 0.2 mm 2 mps 756 mmHg 70%
    15:00 +34°C° 0.2 mm 2 mps 756 mmHg 75%
    16:00 +32°C° 0.1 mm 2 mps 756 mmHg 81%
    17:00 +30°C° 0.1 mm 3 mps 756 mmHg 87%
    18:00 +28°C° 0.1 mm 3 mps 756 mmHg 93%
    19:00 +28°C° 0 mm 3 mps 756 mmHg 94%
    20:00 +27°C° 0 mm 3 mps 757 mmHg 94%
    21:00 +27°C° 0 mm 3 mps 758 mmHg 95%
    22:00 +27°C° 0 mm 2 mps 757 mmHg 95%
    23:00 +27°C° 0 mm 2 mps 757 mmHg 95%

    Tomorrow, 24 September, Tuesday

    Time Temperature Precipitation Wind Pressure Humidity
    00:00 +27°C° 0 mm 2 mps 757 mmHg 95%
    01:00 +27°C° 0 mm 2 mps 757 mmHg 95%
    02:00 +26°C° 0 mm 2 mps 757 mmHg 95%
    03:00 +26°C° 0 mm 2 mps 757 mmHg 95%
    04:00 +26°C° 0.1 mm 2 mps 757 mmHg 95%
    05:00 +26°C° 0.1 mm 1 mps 757 mmHg 95%
    06:00 +26°C° 0.1 mm 1 mps 757 mmHg 94%
    07:00 +29°C° 0 mm 1 mps 757 mmHg 83%
    08:00 +32°C° 0 mm 1 mps 758 mmHg 72%
    09:00 +34°C° 0 mm 1 mps 758 mmHg 61%
    10:00 +36°C° 0 mm 2 mps 757 mmHg 58%
    11:00 +37°C° 0 mm 2 mps 757 mmHg 55%
    12:00 +38°C° 0 mm 3 mps 756 mmHg 52%
    13:00 +36°C° 0.2 mm 3 mps 756 mmHg 61%
    14:00 +35°C° 0.2 mm 3 mps 755 mmHg 71%
    15:00 +34°C° 0.2 mm 3 mps 754 mmHg 80%
    16:00 +31°C° 0.3 mm 2 mps 755 mmHg 85%
    17:00 +30°C° 0.3 mm 2 mps 755 mmHg 90%
    18:00 +28°C° 0.3 mm 1 mps 755 mmHg 95%
    19:00 +28°C° 0.2 mm 2 mps 756 mmHg 96%
    20:00 +27°C° 0.2 mm 2 mps 756 mmHg 96%
    21:00 +27°C° 0.2 mm 3 mps 757 mmHg 97%
    22:00 +27°C° 0.3 mm 3 mps 756 mmHg 97%
    23:00 +27°C° 0.3 mm 3 mps 756 mmHg 97%

    Day after tomorrow, 25 September, Wednesday

    Time Temperature Precipitation Wind Pressure Humidity
    00:00 +27°C° 0.3 mm 3 mps 756 mmHg 97%
    01:00 +26°C° 0.8 mm 2 mps 756 mmHg 97%
    02:00 +26°C° 0.8 mm 2 mps 756 mmHg 97%
    03:00 +26°C° 0.8 mm 2 mps 756 mmHg 97%
    04:00 +26°C° 0.9 mm 2 mps 756 mmHg 97%
    05:00 +26°C° 0.9 mm 2 mps 756 mmHg 97%
    06:00 +26°C° 0.9 mm 2 mps 756 mmHg 97%
    07:00 +28°C° 0.2 mm 2 mps 757 mmHg 86%
    08:00 +31°C° 0.2 mm 1 mps 757 mmHg 76%
    09:00 +33°C° 0.2 mm 1 mps 758 mmHg 65%
    10:00 +35°C° 0.1 mm 2 mps 757 mmHg 66%
    11:00 +35°C° 0.1 mm 2 mps 757 mmHg 67%
    12:00 +36°C° 0.1 mm 2 mps 756 mmHg 69%
    13:00 +35°C° 0.6 mm 3 mps 755 mmHg 74%
    14:00 +34°C° 0.6 mm 3 mps 755 mmHg 79%
    15:00 +33°C° 0.6 mm 3 mps 754 mmHg 85%
    16:00 +31°C° 0.3 mm 3 mps 754 mmHg 89%
    17:00 +30°C° 0.3 mm 3 mps 754 mmHg 92%
    18:00 +28°C° 0.3 mm 2 mps 755 mmHg 96%
    19:00 +28°C° 1 mm 3 mps 755 mmHg 97%
    20:00 +27°C° 1 mm 3 mps 756 mmHg 97%
    21:00 +27°C° 1 mm 4 mps 756 mmHg 97%
    22:00 +27°C° 1 mm 4 mps 756 mmHg 97%
    23:00 +27°C° 1 mm 4 mps 756 mmHg 97%

    26 September, Thursday

    Time Temperature Precipitation Wind Pressure Humidity
    00:00 +27°C° 1 mm 3 mps 756 mmHg 97%
    01:00 +26°C° 0.3 mm 3 mps 756 mmHg 97%
    02:00 +26°C° 0.3 mm 3 mps 755 mmHg 97%
    03:00 +26°C° 0.3 mm 2 mps 755 mmHg 97%
    04:00 +26°C° 0.1 mm 2 mps 755 mmHg 96%
    05:00 +26°C° 0.1 mm 2 mps 756 mmHg 96%
    06:00 +26°C° 0.1 mm 1 mps 756 mmHg 96%
    07:00 +28°C° 0.1 mm 2 mps 756 mmHg 86%
    08:00 +31°C° 0.1 mm 2 mps 756 mmHg 76%
    09:00 +34°C° 0.1 mm 2 mps 757 mmHg 65%
    10:00 +35°C° 0 mm 2 mps 756 mmHg 61%
    11:00 +36°C° 0 mm 2 mps 756 mmHg 56%
    12:00 +37°C° 0 mm 2 mps 756 mmHg 52%
    13:00 +36°C° 0.2 mm 2 mps 755 mmHg 64%
    14:00 +35°C° 0.2 mm 3 mps 754 mmHg 76%
    15:00 +34°C° 0.2 mm 3 mps 753 mmHg 88%
    16:00 +31°C° 0.1 mm 3 mps 754 mmHg 90%
    17:00 +30°C° 0.1 mm 3 mps 754 mmHg 93%
    18:00 +28°C° 0.1 mm 3 mps 754 mmHg 96%
    19:00 +28°C° 0 mm 3 mps 755 mmHg 96%
    20:00 +27°C° 0 mm 3 mps 756 mmHg 96%
    21:00 +27°C° 0 mm 2 mps 756 mmHg 96%
    22:00 +27°C° 0 mm 3 mps 756 mmHg 96%
    23:00 +27°C° 0 mm 3 mps 756 mmHg 97%

    27 September, Friday

    Time Temperature Precipitation Wind Pressure Humidity
    00:00 +27°C° 0 mm 3 mps 756 mmHg 97%
    01:00 +27°C° 0 mm 3 mps 755 mmHg 97%
    02:00 +26°C° 0 mm 2 mps 755 mmHg 97%
    03:00 +26°C° 0 mm 2 mps 754 mmHg 97%
    04:00 +26°C° 0 mm 1 mps 755 mmHg 97%
    05:00 +26°C° 0 mm 1 mps 755 mmHg 97%
    06:00 +26°C° 0 mm 1 mps 755 mmHg 96%
    07:00 +28°C° 0 mm 1 mps 755 mmHg 86%
    08:00 +30°C° 0 mm 1 mps 756 mmHg 76%
    09:00 +31°C° 0 mm 0 mps 756 mmHg 66%
    10:00 +34°C° 0 mm 1 mps 756 mmHg 59%
    11:00 +35°C° 0 mm 1 mps 756 mmHg 52%
    12:00 +38°C° 0 mm 2 mps 755 mmHg 45%
    13:00 +37°C° 0 mm 2 mps 755 mmHg 49%
    14:00 +36°C° 0 mm 3 mps 754 mmHg 52%
    15:00 +36°C° 0 mm 4 mps 753 mmHg 56%
    16:00 +34°C° 0 mm 3 mps 754 mmHg 67%
    17:00 +31°C° 0 mm 3 mps 754 mmHg 77%
    18:00 +28°C° 0 mm 3 mps 754 mmHg 88%
    19:00 +28°C° 0 mm 3 mps 755 mmHg 90%
    20:00 +28°C° 0 mm 3 mps 755 mmHg 93%
    21:00 +27°C° 0 mm 3 mps 756 mmHg 95%
    22:00 +27°C° 0.7 mm 2 mps 756 mmHg 96%
    23:00 +27°C° 0.7 mm 2 mps 755 mmHg 97%

    28 September, Saturday

    Time Temperature Precipitation Wind Pressure Humidity
    00:00 +27°C° 0.7 mm 1 mps 755 mmHg 98%
    01:00 +27°C° 0 mm 1 mps 755 mmHg 97%
    02:00 +27°C° 0 mm 1 mps 755 mmHg 97%
    03:00 +27°C° 0 mm 1 mps 754 mmHg 96%
    04:00 +27°C° 0 mm 1 mps 754 mmHg 96%
    05:00 +27°C° 0 mm 2 mps 755 mmHg 96%
    06:00 +27°C° 0 mm 2 mps 755 mmHg 96%
    07:00 +29°C° 0 mm 2 mps 756 mmHg 84%
    08:00 +31°C° 0 mm 2 mps 756 mmHg 73%
    09:00 +35°C° 0 mm 2 mps 757 mmHg 62%
    10:00 +36°C° 0 mm 2 mps 756 mmHg 56%
    11:00 +37°C° 0 mm 3 mps 756 mmHg 51%
    12:00 +38°C° 0 mm 3 mps 756 mmHg 46%
    13:00 +38°C° 0 mm 3 mps 755 mmHg 48%
    14:00 +37°C° 0 mm 3 mps 755 mmHg 50%
    15:00 +36°C° 0 mm 3 mps 754 mmHg 52%
    16:00 +34°C° 0 mm 3 mps 754 mmHg 63%
    17:00 +31°C° 0 mm 3 mps 755 mmHg 75%
    18:00 +29°C° 0 mm 3 mps 755 mmHg 87%
    19:00 +28°C° 0.6 mm 3 mps 756 mmHg 90%
    20:00 +28°C° 0.6 mm 3 mps 756 mmHg 93%
    21:00 +27°C° 0.6 mm 4 mps 757 mmHg 96%
    22:00 +27°C° 0.7 mm 3 mps 757 mmHg 97%
    23:00 +27°C° 0.7 mm 2 mps 757 mmHg 97%
    Show more